Regional Weather Roundup
Issued by NWS Charleston, SC

Current Version | Previous Version | Text Only | Print | Product List | Glossary Off
Versions: 1 2 3 4 5 6 7 8 9 10 11 12 13 14 15 16 17 18 19 20 21 22 23 24 25 26 27 28 29 30 31 32 33 34 35 36 37 38 39 40 41 42 43 44 45 46 47 48 49 50

000
ASUS42 KCHS 242325
RWRCHS

REGIONAL WEATHER ROUNDUP
NATIONAL WEATHER SERVICE CHARLESTON SC
700 PM EDT THU JUL 24 2014

NOTE: "FAIR" INDICATES FEW OR NO CLOUDS BELOW 12,000 FEET WITH NO
SIGNIFICANT WEATHER AND/OR OBSTRUCTIONS TO VISIBILITY.

NOT ALL STATIONS ARE QUALITY CONTROLLED BY THE NATIONAL
WEATHER SERVICE. USE DATA WITH CAUTION...ESPECIALLY
DEWPOINT OBSERVATIONS.

SCZ027-030-031-034>040-042>050-250000-
...SOUTH CAROLINA...

CITY           SKY/WX    TMP DP  RH WIND       PRES   REMARKS
N CHARLESTON   MOSUNNY   90  76  63 S13       29.88S HX 101
WATERFRONT PRK   N/A     86 N/A N/A SW14G20     N/A
FORT JOHNSON   NOT AVBL
MOUNT PLEASANT FAIR      88  79  74 SW8       29.88S HX 102
JOHNS ISLAND   CLEAR     86  73  66 S12G22    29.89S HX  93
PINOPOLIS        N/A     93  73  52 SW8       29.79R HX 102
MONCKS CORNER    N/A     90  75  62 SW6       29.87S HX 100
SUMMERVILLE    NOT AVBL
BEAUFORT MCAS  MOSUNNY   92  69  47 W12       29.89S HX  97
BEAUFORT ARPT  FAIR      91  72  52 SW9       29.89S HX  98
HILTON HEAD IS MOSUNNY   88  81  79 S7        29.91S HX 105
GEORGETOWN     NOT AVBL
WALTERBORO       N/A     91  63  38 SW9       29.89S HX  92
ORANGEBURG     SUNNY     90  69  50 W10       29.87S HX  94
BARNWELL       FAIR      91  70  49 W8        29.89S HX  97
AIKEN          FAIR      88  70  55 SW14G21   29.92S HX  92
MANNING        FAIR      91  72  52 SW6       29.87R HX  98
KINGSTREE      NOT AVBL
COLUMBIA       MOSUNNY   93  68  43 W9        29.85S HX  97
SUMTER         MOSUNNY   90  73  56 SW8       29.84S HX  97
FLORENCE       MOSUNNY   89  70  53 CALM      29.85R HX  94
MYRTLE BEACH   MOSUNNY   88  75  66 S14G22    29.85S HX  97
N MYRTLE BEACH MOSUNNY   86  76  71 SW18G28   29.85S HX  96

$$

GAZ063-065-086>088-099>101-113>116-118-119-134-136>141-150-250000-
...GEORGIA...

CITY           SKY/WX    TMP DP  RH WIND       PRES   REMARKS
SAVANNAH ARPT  MOSUNNY   92  69  47 SW10      29.91R HX  97
HUNTER AAF     SUNNY     91  71  50 SW12      29.89S HX  97
FORT STEWART   SUNNY     92  70  48 SW10      29.90S HX  98
STATESBORO     NOT AVBL
SYLVANIA       CLEAR     90  74  59 CALM      29.91R HX  99
CLAXTON        FAIR      90  73  58 W5        29.90F HX  98
THOMSON        MOSUNNY   81  79  96 W5        29.96R HX  90
AUGUSTA-BUSH   MOSUNNY   90  69  50 W12       29.88R HX  94
AUGUSTA-DANIEL SUNNY     91  70  49 SW9       29.90R HX  96
SWAINSBORO     FAIR      91  72  52 W6        29.92S HX  98
VIDALIA          N/A     90  72  55 SW9       29.91F HX  96
ALMA           MOSUNNY   89  68  49 SW9       29.92F HX  93
WAYCROSS       PTSUNNY   92  74  54 SW7       29.93R HX 102
JESUP          NOT AVBL
BRUNSWICK      PTSUNNY   91  68  46 CALM      29.93S HX  95
SAINT SIMONS   MOSUNNY   92  69  47 SW13      29.93R HX  97

$$

SCZ027-028-034-036>038-045-046-048>050-GAZ119-141-250000-
...LAKE AND SUPPLEMENTAL COASTAL OBSERVATIONS...

STATION/POSITION TIME  TEMP    WIND        PRES    WAVE   SWELL
                       AIR SEA DIR/SP/G            HT/PER HT/PER/DIR
                 (UTC) (F)     (DEG/KT/KT) (MB)    (FT/S) (FT/S/D)
UPR LAKE MARION  NOT AVBL
WINYAH BAY       2300   87     210/ 13     1011.0S
LAKE MURRAY      2200   86     280/  5/  9 1010.5S
ACE BASIN NERRS  2300   89     180/  1     1012.0S
FORT PULASKI     2300   91     230/  7/ 11 1013.0R
SAPELO ISLAND    2300   92     240/ 12     1014.0S

$$

ANZ835-935-AMZ111-154-330-350-352-354-374-450-454-472-250000-
...C-MAN AND BUOY OBSERVATIONS...

STATION/POSITION TIME  TEMP    WIND        PRES    WAVE   SWELL
                       AIR SEA DIR/SP/G            HT/PER HT/PER/DIR
                 (UTC) (F)     (DEG/KT/KT) (MB)    (FT/S) (FT/S/D)
FOLLY BEACH CMAN 2300   85     210/ 19/ 23 1012.5F
BUOY 41004       2300   83 83  210/ 17/ 21 1011.5F   4/ 5   2/ 7
BUOY 41008       2300   84 85  180/ 16/ 17 1013.1S   2/ 3   2/110/ 7
5E ST. MARYS GA  2300      85                N/A     2/ 7
FRYING PAN BUOY  NOT AVBL
BUOY 41025       2300          VRB 14/ 16  1011.0S   4/ 7   2/170/ 7
CAPE LOOKOUT NC  2300   73     180/  5/  7 1012.5R
BUOY 41002       2245   82 82  230/ 17/ 21 1015.1F   5/ 7   2/140/ 9
BUOY 41010       2300   84 84  200/ 14/ 16 1016.0S   3/ 7   2/130/ 7
BUOY 41012       NOT AVBL
ST AUGUSTINE FL  2300   84     160/ 19/ 21 1015.3R
CAPERS NEARSHORE 2200   84     220/ 17/ 21   N/A
FRIPP NEARSHORE  NOT AVBL


$$



USA.gov is the U.S. government's official web portal to all federal, state and local government web resources and services.